Regional Weather Roundup
Issued by NWS

Home | Current Version | Previous Version | Text Only | Print | Product List | Glossary Off
Versions: 1 2 3 4 5 6 7 8 9 10 11 12 13 14 15 16 17 18 19 20 21 22 23 24 25 26 27 28

000
ASUS45 KCYS 210910
RWRWY

WYOMING REGIONAL WEATHER ROUNDUP
NATIONAL WEATHER SERVICE CHEYENNE WY
200 AM MST TUE NOV 21 2017

NOTE:  "FAIR" INDICATES FEW OR NO CLOUDS BELOW 12,000 FEET
WITH NO SIGNIFICANT WEATHER AND/OR OBSTRUCTIONS TO VISIBILITY.

WYZ001-211000-
YELLOWSTONE NATIONAL PARK

CITY           SKY/WX    TMP DP  RH WIND       PRES   REMARKS
LK YELLOWSTONE   N/A     30  28  92 W6        30.12R WCI  24
W YELLOWSTONE  NOT AVBL

$$
WYZ002>013-054>058-071-098>099-211000-
NORTHERN WYOMING

CITY           SKY/WX    TMP DP  RH WIND       PRES   REMARKS
JACKSON        FLURRIES  37  36  93 SW8       30.09R WCI  31
CODY           CLOUDY    34  32  92 N10       30.07R WCI  26
GREYBULL       MOCLDY    36  31  82 CALM      30.03R
WORLAND        FAIR      30  27  88 CALM      30.03R
SHERIDAN       LGT SNOW  29  28  96 N8        30.14R FOG     WCI  21
BUFFALO        CLOUDY    28  26  92 N8        30.09R FOG     WCI  20
GILLETTE       CLOUDY    25  23  92 N17       30.09R FOG     WCI  12
HULETT         FLURRIES  27  23  86 N6        30.09R WCI  20
NEWCASTLE      FAIR      34  27  75 NW10      29.99R WCI  26

$$
WYZ014>020-022>026-101>103-211000-
CENTRAL WYOMING

CITY           SKY/WX    TMP DP  RH WIND       PRES   REMARKS
BIG PINEY      MOCLDY    30  29  96 E7        30.12R WCI  23
PINEDALE       FLURRIES  32  32 100 CALM      30.14R
DUBOIS         PTSUNNY   36  30  80 NW15      30.02R WCI  26
LANDER           N/A     39  26  59 CALM      30.00R
RIVERTON       CLOUDY    38  30  73 W10       30.01R WCI  31
CASPER         MOCLDY    36  27  69 W8        30.01R WCI  30
DOUGLAS        MOCLDY    40  28  62 N14       30.00R WCI  32

$$
WYZ021-027>030-104>119-211000-
SOUTHERN WYOMING

CITY           SKY/WX    TMP DP  RH WIND       PRES   REMARKS
EVANSTON       CLOUDY    38  35  89 W14       30.23R WCI  30
KEMMERER       LGT RAIN  34  32  93 W25       30.15F WCI  21
FORT BRIDGER   CLOUDY    39  36  89 W26G35    30.20R WCI  28
ROCK SPRINGS   MOCLDY    37  32  82 W21       30.14R WCI  26
DIXON          CLOUDY    37  22  53 SW10      30.18S WCI  30
RAWLINS        LGT RAIN  39  32  76 W29G37    30.07R WCI  27
SARATOGA       FAIR      36  30  80 W16       30.08R WCI  26
LARAMIE        CLOUDY    36  29  75 W22       30.01R WCI  25
CHEYENNE       MOCLDY    43  28  55 W21G33    29.98R
TORRINGTON     FAIR      46  29  51 NW13      29.94R
PINE BLUFFS    FAIR      46  28  49 MISG      29.93R

$$




USA.gov is the U.S. government's official web portal to all federal, state and local government web resources and services.